Content
SEND FEEDBACK

Daily
Averages
Monthly
Summary
Canada

STE. DOROTHEE, QUEBEC


Home > North America > Canada > Quebec
Elevation: 75 feet     Latitude: 45 31N     Longitude: 73 47W

WEATHER
 
SELECT A DAY
Number of Records: 201,452;   Date Range: 1/1/95 - 10/21/14
 
SHARE

PRINT THIS DATA

[ ← Previous Day ]
WEATHER ALMANAC - FEBRUARY 17, 2013
[ Next Day → ]
[ °C ]   °F
Weather ElementAverageHighLow
Temperature10.5 °F17.6 °F (3:00 pm) (10:00 pm)
Dewpoint-0.2 °F3.2 °F (1:00 am)-4 °F (11:00 am)
Humidity59.4 %73 % (1:00 am)40 % (1:00 pm)
Barometer28.80 in29.97 in (1:00 am) (7:00 pm)
Wind Speed13.1 mph26.5 mph (4:00 pm)
Wind Gust32.2 mph (4:00 pm)
Weather ElementAverage
Visibility20.1 mi
Wind DirectionWNW (301.4 °)

Weather ElementTotal
Precipitation---
Heating Degree Days56.2 (Base 65)
Averaged from 28 records on February 17, 2013
WEATHER CONDITIONS BREAKOUT
WIND DIRECTION BREAKOUT
WEATHER BY HOUR - FEBRUARY 17, 2013
[ °C ]   °F
Local TimeTemperatureDewpointHumidityBarometerVisibilityWind DirectionWind SpeedGust SpeedPrecipitationEventsConditions
1:00 AM11.0 °F3.0 °F57 %29.97 in15.0 miNNW (340°)5.8 mphOvercast
1:00 AM10.4 °F3.2 °F73 %29.96 in15.0 miNNW (330°)5.8 mphOvercast
2:00 AM10.4 °F3.2 °F73 %29.95 in15.0 miNNW (340°)6.9 mphOvercast
3:00 AM10.4 °F1.4 °F67 %29.93 in15.0 miNNW (330°)8.1 mphOvercast
4:00 AM10.4 °F1.4 °F67 %29.93 in15.0 miNNW (340°)6.9 mphOvercast
5:00 AM8.6 °F-0.4 °F67 %29.94 in15.0 miNorth (350°)9.2 mphScattered Clouds
6:00 AM8.6 °F-0.4 °F67 %29.91 in15.0 miNorth (360°)8.1 mphPartly Cloudy
7:00 AM6.8 °F-2.2 °F67 %29.92 in15.0 miNorth (350°)4.6 mphPartly Cloudy
7:00 AM7.0 °F-1.0 °F55 %29.93 in15.0 miNNW (340°)4.6 mphClear
8:00 AM6.8 °F-2.2 °F67 %29.91 in40.0 miNW (320°)9.2 mphMostly Cloudy
9:00 AM6.8 °F-2.2 °F67 %29.88 in15.0 miNW (320°)9.2 mphMostly Cloudy
10:00 AM8.6 °F-0.4 °F67 %29.86 in15.0 miWNW (290°)9.2 mphMostly Cloudy
11:00 AM10.4 °F-4.0 °F52 %29.84 in15.0 miNNW (340°)6.9 mphOvercast
12:00 PM12.2 °F-0.4 °F57 %29.81 in30.0 miWest (260°)9.2 mphOvercast
1:00 PM12.2 °F-0.4 °F57 %29.79 in30.0 miWSW (250°)12.7 mphOvercast
1:00 PM12.0 °F-1.0 °F40 %29.79 in28.0 miWest (260°)12.7 mphOvercast
2:00 PM15.8 °F1.4 °F53 %29.78 in30.0 miWest (260°)18.4 mphOvercast
3:00 PM17.6 °F1.4 °F49 %29.76 in30.0 miWest (280°)21.9 mphOvercast
4:00 PM15.8 °F-0.4 °F49 %29.76 in30.0 miWest (280°)26.5 mph32.2 mphOvercast
5:00 PM14.0 °F1.4 °F57 %29.78 in30.0 miWest (280°)17.3 mph29.9 mphMostly Cloudy
6:00 PM14.0 °F-0.4 °F53 %29.81 in30.0 miWNW (290°)20.7 mph31.1 mphMostly Cloudy
7:00 PM12.2 °F-0.4 °F57 %29.83 in15.0 miWest (280°)18.4 mph25.3 mphPartly Cloudy
7:00 PM12.0 °F-1.0 °F42 %29.83 in15.0 miWest (280°)19.6 mphClear
8:00 PM12.2 °F-0.4 °F57 %29.84 in15.0 miWest (270°)17.3 mph24.2 mphPartly Cloudy
9:00 PM10.4 °F-0.4 °F62 %29.85 in15.0 miWest (270°)18.4 mph27.6 mphPartly Cloudy
10:00 PM0.0 °F0.0 °F15.0 miWest (270°)20.7 mphPartly Cloudy
10:29 PM8.6 °F-2.2 °F62 %29.88 in15.0 miWest (280°)20.7 mph28.8 mphPartly Cloudy
11:00 PM8.6 °F-2.2 °F62 %29.91 in15.0 miWest (280°)17.3 mph26.5 mphScattered Clouds
Hourly data recorded from CYUL, located miles away from Ste. Dorothee, Quebec







STORIES FROM OUR PARTNERS